Weather History for Harbor Springs, MI

Change the Weather History Date:

Monday, August 18, 2014

  Actual Average (KPLN) Record (KPLN)
Temperature  
Mean Temperature 64 °F -  
Max Temperature 76 °F 76 °F 94 °F (1955)
Min Temperature 52 °F 49 °F 30 °F (1962)
Degree Days  
Heating Degree Days 1    
Growing Degree Days 14 (Base 50)    
Moisture  
Dew Point 57 °F    
Average Humidity 76    
Maximum Humidity 95    
Minimum Humidity 55    
Precipitation  
Precipitation 0.00 in - - ()
Sea Level Pressure  
Sea Level Pressure 29.90 in    
Wind  
Wind Speed 5 mph (East)    
Max Wind Speed 10 mph    
Max Gust Speed -    
Visibility 10 miles    
Events Rain    
Averages and records for this station are not official NWS values.
T = Trace of Precipitation, MM = Missing Value Source: NWS Daily Summary

Daily Weather History Graph

Daily Weather History Graph

Search for Another Location

Airport:

Trip Planner

Search our weather history database for the weather conditions in past years. The results will help you decide how hot, cold, wet, or windy it might be!

Date:

Astronomy

Aug. 18, 2014 Rise Set
Actual Time 6:44 AM EDT 8:41 PM EDT
Civil Twilight 6:12 AM EDT 9:13 PM EDT
Nautical Twilight 5:32 AM EDT 9:52 PM EDT
Astronomical Twilight 4:49 AM EDT 10:35 PM EDT
Moon 12:47 AM EDT (8/18) 3:49 PM EDT (8/18)
Length of Visible Light 15h 01m
Length of Day
13h 57m
Last Quarter, 38% of the Moon is Illuminated
Aug 18
Last Quarter
Aug 25
New
Sep 2
First Quarter
Sep 8
Full
Sep 15
Last Quarter

Hourly Weather History & Observations

Time (EDT) Temp. Dew Point Humidity Pressure Visibility Wind Dir Wind Speed Gust Speed Precip Events Conditions
12:15 AM 57.2 °F 54.5 °F 91% 30.01 in 10.0 mi NE 5.8 mph - N/A   Clear
12:34 AM 57.0 °F 54.5 °F 91% 30.01 in 10.0 mi NE 5.8 mph - N/A   Clear
12:55 AM 55.9 °F 53.8 °F 92% 30.00 in 10.0 mi ENE 3.5 mph - N/A   Clear
1:14 AM 56.7 °F 54.5 °F 92% 30.00 in 10.0 mi NE 4.6 mph - N/A   Clear
1:35 AM 56.7 °F 54.5 °F 92% 30.00 in 10.0 mi NE 3.5 mph - N/A   Clear
1:55 AM 55.9 °F 53.8 °F 92% 29.99 in 10.0 mi NE 3.5 mph - N/A   Clear
2:14 AM 55.6 °F 53.6 °F 93% 29.98 in 10.0 mi NE 4.6 mph - N/A   Clear
2:35 AM 56.1 °F 54.3 °F 94% 29.97 in 10.0 mi NE 5.8 mph - N/A   Clear
2:55 AM 55.9 °F 54.0 °F 93% 29.97 in 10.0 mi NE 4.6 mph - N/A   Clear
3:14 AM 55.2 °F 53.4 °F 94% 29.97 in 10.0 mi NE 3.5 mph - N/A   Clear
3:35 AM 54.7 °F 53.2 °F 95% 29.97 in 10.0 mi NNE 4.6 mph - N/A   Clear
3:55 AM 53.8 °F 52.0 °F 94% 29.97 in 10.0 mi Calm Calm - N/A   Clear
4:14 AM 53.4 °F 51.8 °F 94% 29.97 in 10.0 mi NNE 4.6 mph - N/A   Scattered Clouds
4:35 AM 53.2 °F 51.6 °F 94% 29.97 in 10.0 mi North 3.5 mph - N/A   Scattered Clouds
4:54 AM 52.7 °F 50.9 °F 94% 29.97 in 10.0 mi ENE 4.6 mph - N/A   Scattered Clouds
5:15 AM 54.1 °F 52.9 °F 95% 29.97 in 7.0 mi Calm Calm - N/A   Overcast
5:34 AM 54.7 °F 53.2 °F 95% 29.96 in 10.0 mi ENE 6.9 mph - N/A   Overcast
5:55 AM 55.4 °F 54.0 °F 95% 29.97 in 7.0 mi ENE 5.8 mph - N/A   Overcast
6:14 AM 55.6 °F 54.0 °F 94% 29.97 in 10.0 mi ENE 6.9 mph - N/A   Mostly Cloudy
6:35 AM 55.4 °F 53.8 °F 94% 29.97 in 7.0 mi ENE 5.8 mph - N/A   Mostly Cloudy
6:54 AM 55.4 °F 53.8 °F 94% 29.98 in 10.0 mi ENE 4.6 mph - N/A   Overcast
7:15 AM 55.4 °F 53.8 °F 94% 29.97 in 4.0 mi NE 5.8 mph - N/A   Overcast
7:35 AM 55.4 °F 54.0 °F 95% 29.97 in 5.0 mi ENE 5.8 mph - N/A   Overcast
7:55 AM 56.1 °F 54.5 °F 94% 29.97 in 7.0 mi NE 6.9 mph - N/A   Mostly Cloudy
8:15 AM 57.0 °F 54.5 °F 91% 29.97 in 7.0 mi NE 5.8 mph - N/A   Scattered Clouds
8:35 AM 58.6 °F 55.8 °F 90% 29.97 in 7.0 mi ENE 4.6 mph - N/A   Scattered Clouds
8:55 AM 59.4 °F 56.1 °F 89% 29.96 in 10.0 mi ENE 5.8 mph - N/A   Mostly Cloudy
9:15 AM 61.2 °F 56.1 °F 83% 29.96 in 10.0 mi ENE 4.6 mph - N/A   Scattered Clouds
9:34 AM 61.5 °F 55.8 °F 81% 29.96 in 10.0 mi East 5.8 mph - N/A   Mostly Cloudy
9:55 AM 63.7 °F 56.8 °F 78% 29.96 in 10.0 mi ENE 4.6 mph - N/A   Scattered Clouds
10:15 AM 65.5 °F 56.8 °F 74% 29.95 in 10.0 mi East 5.8 mph - N/A   Scattered Clouds
10:34 AM 66.2 °F 57.2 °F 73% 29.95 in 10.0 mi ENE 6.9 mph - N/A   Scattered Clouds
10:55 AM 68.2 °F 57.9 °F 70% 29.94 in 10.0 mi NE 6.9 mph - N/A   Mostly Cloudy
11:15 AM 69.6 °F 58.1 °F 67% 29.93 in 10.0 mi East 4.6 mph - N/A   Scattered Clouds
11:35 AM 71.6 °F 58.6 °F 64% 29.93 in 10.0 mi East 5.8 mph - N/A   Clear
11:55 AM 71.6 °F 58.1 °F 62% 29.92 in 10.0 mi East 6.9 mph - N/A   Clear
12:14 PM 73.2 °F 58.5 °F 60% 29.91 in 10.0 mi ENE 5.8 mph - N/A   Clear
12:35 PM 73.8 °F 58.5 °F 59% 29.91 in 10.0 mi East 8.1 mph - N/A   Scattered Clouds
12:55 PM 73.6 °F 57.7 °F 58% 29.90 in 10.0 mi ESE 5.8 mph - N/A   Mostly Cloudy
1:14 PM 74.1 °F 57.2 °F 55% 29.89 in 10.0 mi ESE 6.9 mph - N/A   Overcast
1:35 PM 73.9 °F 57.6 °F 56% 29.89 in 10.0 mi SE 5.8 mph - N/A   Mostly Cloudy
1:55 PM 73.9 °F 57.6 °F 56% 29.89 in 10.0 mi ESE 5.8 mph - N/A   Scattered Clouds
2:14 PM 74.5 °F 57.7 °F 56% 29.89 in 10.0 mi ESE 6.9 mph - N/A   Mostly Cloudy
2:35 PM 73.4 °F 58.1 °F 59% 29.88 in 10.0 mi SE 4.6 mph - N/A   Overcast
2:55 PM 74.5 °F 57.7 °F 56% 29.88 in 10.0 mi SE 4.6 mph - N/A   Overcast
3:14 PM 74.3 °F 58.8 °F 58% 29.88 in 10.0 mi South 3.5 mph - N/A   Overcast
3:35 PM 74.5 °F 58.6 °F 58% 29.87 in 10.0 mi Calm Calm - N/A   Overcast
3:55 PM 74.7 °F 58.8 °F 58% 29.86 in 10.0 mi ESE 5.8 mph - N/A   Mostly Cloudy
4:15 PM 74.8 °F 58.3 °F 56% 29.86 in 10.0 mi ESE 6.9 mph - N/A   Mostly Cloudy
4:35 PM 74.3 °F 59.0 °F 59% 29.85 in 10.0 mi SSE 5.8 mph - N/A   Mostly Cloudy
4:54 PM 74.5 °F 59.4 °F 59% 29.85 in 10.0 mi East 5.8 mph - N/A   Mostly Cloudy
5:15 PM 74.3 °F 59.4 °F 60% 29.84 in 10.0 mi East 4.6 mph - N/A   Overcast
5:34 PM 74.7 °F 59.7 °F 60% 29.83 in 10.0 mi East 6.9 mph - N/A   Overcast
5:55 PM 76.1 °F 60.3 °F 58% 29.83 in 10.0 mi ENE 10.4 mph - N/A   Scattered Clouds
6:14 PM 74.3 °F 60.6 °F 62% 29.83 in 10.0 mi SSE 5.8 mph - N/A   Mostly Cloudy
6:35 PM 74.3 °F 60.3 °F 61% 29.83 in 10.0 mi ESE 3.5 mph - N/A   Overcast
6:55 PM 73.9 °F 60.6 °F 63% 29.81 in 10.0 mi East 5.8 mph - N/A   Overcast
7:14 PM 73.4 °F 61.0 °F 65% 29.81 in 10.0 mi ESE 3.5 mph - N/A   Overcast
7:35 PM 73.0 °F 60.8 °F 65% 29.81 in 10.0 mi Calm Calm - N/A   Overcast
7:54 PM 72.7 °F 61.0 °F 67% 29.81 in 10.0 mi Calm Calm - N/A   Overcast
8:15 PM 71.8 °F 62.1 °F 71% 29.81 in 10.0 mi ENE 3.5 mph - N/A   Overcast
8:34 PM 70.9 °F 62.6 °F 75% 29.80 in 10.0 mi ENE 4.6 mph - N/A   Overcast
8:55 PM 70.9 °F 62.1 °F 74% 29.80 in 10.0 mi East 3.5 mph - N/A   Overcast
9:14 PM 71.1 °F 61.0 °F 70% 29.80 in 10.0 mi East 4.6 mph - N/A   Overcast
9:35 PM 70.9 °F 61.3 °F 72% 29.81 in 10.0 mi East 4.6 mph - N/A Rain Rain
9:55 PM 70.3 °F 61.3 °F 73% 29.81 in 10.0 mi East 5.8 mph - N/A   Overcast
10:14 PM 70.3 °F 60.8 °F 72% 29.80 in 10.0 mi East 5.8 mph - N/A   Overcast
10:35 PM 69.8 °F 60.4 °F 72% 29.79 in 10.0 mi East 5.8 mph - N/A   Overcast
10:55 PM 69.1 °F 60.4 °F 74% 29.78 in 10.0 mi East 4.6 mph - N/A   Mostly Cloudy
11:14 PM 68.4 °F 60.3 °F 75% 29.78 in 10.0 mi East 3.5 mph - N/A   Mostly Cloudy
11:35 PM 68.2 °F 59.9 °F 75% 29.78 in 10.0 mi East 4.6 mph - N/A   Mostly Cloudy